RH
29 34 48 67 73 40 26 20 15 15 18 32 83 96 96 97 97 87 90 88 86 95 94 85 36 25 41 46 26 11 8 9 9 9 12 12 11 14 16 18 21 25 27
30 34 46 67 87 83 42 20 20 16 15 18 40 94 96 97 97 96 98 96 92 98 93 96 91 65 60 51 62 35 17 16 17 18 17 21 21 22 24 26 28 28 26
28 27 42 68 94 100 84 42 19 22 16 15 16 30 91 97 96 97 97 98 98 97 95 94 93 96 86 74 68 58 35 19 20 21 22 23 24 25 26 26 26 23 20
26 32 60 84 91 100 99 90 36 15 21 17 15 15 20 72 98 96 98 97 97 98 97 99 96 96 88 84 83 88 72 47 20 19 20 22 23 24 24 24 24 25 24
27 72 89 97 99 100 100 95 94 40 15 23 20 16 14 15 32 89 98 95 97 98 96 96 97 96 97 93 92 96 89 68 54 23 18 17 18 19 20 20 22 23 24
21 94 100 100 98 100 100 98 97 96 40 17 26 25 21 15 14 16 41 50 76 97 96 96 99 99 98 96 97 98 98 88 75 70 45 28 24 17 16 15 15 15 17
16 64 100 100 99 100 100 100 97 95 96 40 16 29 31 24 18 14 13 18 31 21 90 94 97 96 97 98 97 97 96 97 97 92 95 76 64 46 58 64 34 14 14
10 21 72 100 100 97 100 100 100 100 100 95 29 16 31 34 29 21 15 13 14 23 20 58 93 92 90 96 98 97 95 97 98 97 95 94 94 80 68 82 76 24 32
17 12 23 58 98 100 95 99 100 100 100 100 95 39 20 31 35 31 24 19 18 18 17 36 59 90 91 81 92 94 96 98 100 98 97 97 99 98 90 89 96 93 90
21 20 15 22 44 81 98 100 96 97 100 100 100 92 59 25 39 32 31 26 23 22 26 29 47 60 77 69 81 86 93 98 97 97 98 97 97 97 94 98 97 96 98
21 24 23 23 33 58 64 77 95 94 94 100 100 97 86 95 33 28 28 26 27 25 22 21 18 38 49 45 46 59 90 82 79 80 96 97 95 98 98 97 98 95 95
31 26 26 26 35 58 77 80 76 84 84 83 98 100 95 95 87 27 26 24 21 19 16 14 14 15 25 28 38 33 58 58 60 66 82 97 98 96 97 95 96 97 98
44 41 35 32 33 38 71 81 72 70 84 84 94 100 100 93 97 88 26 22 20 18 16 14 16 18 20 18 17 19 23 58 61 59 63 74 98 97 87 89 92 94 92
75 70 80 59 36 37 59 80 72 58 61 65 95 100 100 100 100 99 67 21 20 19 17 17 25 30 28 25 24 21 18 20 50 95 63 59 98 97 98 98 94 98 97
89 89 87 94 70 58 41 39 68 63 55 53 71 97 99 100 100 100 93 50 38 36 34 35 39 36 30 25 24 23 23 20 19 43 55 61 88 97 98 97 98 99 98
31 59 90 97 97 100 100 80 42 50 54 43 58 87 100 100 100 100 100 100 78 56 51 46 41 36 29 25 21 20 19 19 22 20 22 39 46 95 99 98 98 94 98
16 14 15 33 82 92 95 100 100 76 41 39 55 69 98 100 100 100 100 100 99 86 77 48 38 32 30 25 20 18 18 19 19 21 25 22 44 84 98 98 97 96 100
14 14 14 12 12 24 81 76 100 100 100 87 76 70 94 100 100 100 100 100 100 100 100 75 34 25 22 25 23 17 16 16 16 17 20 24 27 49 48 72 95 84 95
20 29 31 28 20 15 11 38 72 81 100 100 100 99 97 100 100 100 100 100 100 100 100 82 48 28 18 16 18 15 13 11 11 12 14 16 19 21 23 22 26 29 28
22 27 30 35 30 16 12 12 13 55 68 95 100 100 100 100 100 100 100 100 100 100 98 100 99 88 68 67 26 17 12 10 9 10 10 10 14 14 14 15 15 15 18
27 28 32 42 40 25 12 9 10 10 28 62 73 98 99 100 100 100 100 98 99 100 93 48 39 39 22 15 12 11 11 11 14 18 17 17 19 16 12 14 14 14 23
36 38 38 36 23 19 17 12 8 8 10 13 52 66 86 94 100 100 100 100 76 88 100 99 92 81 26 16 17 20 25 25 23 17 13 11 9 10 10 11 12 12 14
40 33 25 21 17 14 12 10 8 7 8 9 10 35 63 75 91 100 100 100 87 39 74 88 75 38 23 20 24 27 24 19 17 16 15 12 11 11 10 10 11 11 11
19 18 16 14 11 9 9 8 8 7 6 8 8 9 25 56 72 92 100 100 100 71 31 31 35 33 22 25 30 29 25 21 19 17 15 14 13 11 9 10 11 10 8
12 12 11 10 10 12 11 11 11 10 10 9 7 7 9 18 44 66 92 100 100 100 72 56 85 58 26 32 36 32 25 19 16 15 18 17 15 12 11 11 12 12 14
10 11 10 11 13 17 19 18 16 14 13 12 9 7 7 8 12 36 61 84 100 100 100 98 85 38 34 41 38 28 23 23 21 21 23 24 20 17 13 14 14 20 49
Wind_Speed
56 56 64 65 61 61 59 57 55 52 52 52 49 51 50 51 45 53 54 56 62 50 54 48 48 43 39 39 38 37 35 34 33 33 32 31 30 29 29 28 28 28 26
56 54 62 67 65 61 60 58 55 54 55 53 53 53 43 45 47 48 47 55 58 38 41 47 44 51 46 45 43 39 39 37 36 34 34 33 33 32 32 31 31 31 31
54 53 56 64 67 64 61 58 56 56 57 56 55 60 57 38 46 43 34 47 51 51 54 46 48 43 49 53 49 45 44 42 40 39 38 37 36 36 36 35 35 34 34
52 50 54 57 61 63 61 61 56 56 58 58 57 57 62 63 32 35 40 35 47 50 44 44 43 43 40 48 52 50 46 46 46 44 42 41 40 39 39 39 38 38 37
52 46 49 52 53 54 54 58 59 56 56 59 59 59 57 58 62 61 46 41 45 35 45 41 45 45 47 51 56 56 50 47 48 49 46 45 43 43 42 42 43 42 40
52 47 49 48 46 45 49 51 56 60 57 58 59 60 56 56 58 61 52 52 62 47 35 39 37 53 53 54 48 53 46 51 46 48 48 49 47 47 45 46 45 46 44
52 50 48 49 48 45 45 47 50 57 59 61 60 60 58 54 54 53 53 50 52 45 53 44 44 38 30 43 50 46 52 49 43 50 42 52 48 50 49 48 50 49 47
53 52 53 51 50 50 46 42 44 49 55 62 62 61 60 57 53 50 50 49 46 41 42 49 48 37 33 32 38 41 56 55 48 47 56 50 50 50 52 53 53 47 46
52 52 53 54 52 50 52 47 45 43 46 52 63 64 62 59 56 52 50 48 46 41 41 37 37 32 31 29 25 32 27 42 53 52 41 40 41 45 43 42 46 50 49
49 50 52 53 54 56 54 51 49 45 42 44 54 61 68 59 57 56 53 51 49 45 42 41 41 35 33 33 30 29 31 28 34 38 36 36 34 37 42 42 43 43 46
47 45 48 52 52 52 58 59 53 52 50 45 48 55 60 68 60 57 55 53 52 50 49 45 44 45 40 40 41 34 28 32 32 29 31 29 30 38 41 42 40 41 41
44 42 42 45 50 51 51 55 56 54 51 50 46 50 56 60 66 58 56 52 51 51 50 46 45 46 48 49 45 44 41 40 33 30 34 36 36 40 38 40 42 40 41
39 37 37 40 44 49 49 49 51 53 51 49 49 45 50 55 60 66 56 53 52 53 51 48 47 48 48 48 47 46 48 46 40 36 37 37 31 43 41 38 46 47 46
34 33 32 34 37 43 48 46 47 49 51 51 51 49 47 51 53 59 61 56 54 53 53 52 51 52 51 50 49 49 49 48 47 46 45 44 48 43 41 38 38 41 45
31 30 30 29 30 34 41 42 45 46 49 50 50 51 49 48 51 54 61 56 57 57 56 56 55 54 53 53 52 51 51 51 51 54 54 55 45 47 41 45 46 36 41
29 28 28 27 28 29 32 34 38 45 48 48 49 51 51 50 50 50 58 63 58 55 57 58 57 57 56 55 53 52 52 52 54 53 55 57 56 62 50 45 44 39 48
26 26 25 25 25 27 29 28 32 38 45 47 48 50 49 52 51 50 52 56 60 59 56 56 58 58 57 55 54 54 53 53 54 54 53 54 52 54 59 51 46 39 44
26 25 25 25 25 25 26 30 29 31 35 41 44 47 48 50 52 52 51 53 59 62 58 55 57 56 55 54 53 53 53 53 53 52 54 55 54 55 53 49 47 46 56
28 28 29 29 28 27 27 27 29 32 31 33 37 41 45 48 49 52 53 53 54 53 59 58 55 56 55 55 53 51 50 51 49 50 50 50 50 51 50 49 46 49 45
32 33 35 35 35 32 31 30 30 31 34 34 34 37 39 45 46 50 52 52 54 53 51 61 60 58 57 57 56 55 52 51 49 47 45 44 44 44 43 44 44 46 45
37 38 40 42 41 38 36 35 35 33 34 35 37 36 36 38 43 47 51 51 49 55 51 50 49 52 52 51 52 51 50 48 47 45 45 44 44 43 43 44 44 44 42
44 44 45 43 41 41 42 39 38 39 37 37 37 38 40 38 37 42 43 51 47 47 48 50 50 50 50 49 49 49 48 47 44 44 43 41 40 40 41 44 47 46 42
48 46 46 45 44 45 44 44 43 42 43 40 40 39 39 40 40 40 44 48 48 47 49 49 49 50 50 49 47 47 48 47 45 45 44 43 42 40 43 46 46 44 43
51 50 49 48 46 45 44 43 43 43 44 46 44 43 42 40 41 41 43 45 50 47 47 48 49 50 49 48 47 48 49 48 47 45 44 43 45 45 46 47 44 43 41
52 50 47 44 40 38 37 36 36 37 38 42 46 46 45 44 42 42 43 41 48 52 47 45 51 48 46 46 47 49 49 49 47 46 45 45 45 46 45 46 47 45 42
42 40 38 36 34 30 31 30 31 32 33 36 41 46 48 46 47 44 43 44 40 49 52 53 46 44 42 44 45 45 46 46 45 45 45 45 45 46 45 44 45 42 39
Wind_Direction
284 272 258 257 259 258 256 252 250 251 251 250 250 243 235 238 241 245 245 240 246 246 234 234 234 233 235 236 237 233 230 229 230 230 231 231 230 231 232 232 233 236 238
281 272 262 257 259 257 256 253 249 245 248 246 246 243 241 244 236 225 223 241 244 240 252 231 238 232 235 233 235 232 232 230 230 231 233 234 235 234 236 237 239 241 243
281 273 263 260 259 259 255 252 250 244 243 245 244 243 236 238 230 239 238 237 238 243 239 247 249 246 237 235 236 235 234 234 233 234 236 237 240 241 241 241 244 246 248
281 276 268 265 262 264 259 254 250 244 242 242 244 245 242 243 223 221 226 234 233 230 232 235 231 229 232 238 236 236 237 236 236 236 238 240 242 245 248 249 250 252 254
279 276 271 265 264 264 263 257 250 245 242 242 242 245 245 245 245 250 241 257 221 228 226 242 231 233 235 236 237 237 235 235 238 239 240 241 242 245 248 251 253 253 256
277 267 265 264 261 261 259 256 251 248 240 241 243 245 243 244 246 247 252 255 254 255 244 218 237 228 231 234 233 233 226 237 238 243 244 242 245 247 249 250 254 257 257
277 268 266 263 262 256 256 255 254 247 245 239 238 242 245 242 243 245 244 243 247 253 260 250 246 234 219 221 234 232 235 238 238 248 245 246 248 246 249 252 255 253 257
279 270 263 261 262 260 254 255 253 250 244 242 240 237 241 242 242 239 240 241 241 241 246 256 261 263 266 241 218 230 236 237 239 242 240 246 246 251 254 259 254 251 252
283 274 266 259 256 258 257 253 253 253 248 246 242 240 237 239 240 239 238 238 239 236 237 239 250 251 242 248 254 239 219 225 233 238 240 244 240 245 251 253 255 252 256
286 276 269 263 257 252 251 251 253 253 253 250 247 240 239 238 238 237 236 236 238 238 234 231 232 235 237 237 234 255 242 234 222 229 234 242 246 246 249 250 252 258 260
290 279 269 265 262 255 251 251 253 254 255 253 248 245 239 238 237 236 234 233 235 235 237 235 231 228 227 231 230 235 242 242 249 248 249 248 251 252 256 260 257 260 263
294 286 275 264 261 258 253 250 250 252 253 253 249 244 241 237 234 235 233 229 230 231 230 231 228 229 229 228 227 227 226 229 238 248 239 241 244 251 257 260 263 257 262
299 290 281 270 262 257 254 250 249 248 247 247 245 242 239 238 234 232 233 227 225 225 225 226 226 227 228 231 231 230 230 227 228 241 242 238 241 252 257 256 264 262 262
302 297 290 280 268 259 255 249 247 246 245 242 242 240 237 234 234 232 229 229 225 223 224 224 225 227 229 231 231 232 234 233 230 229 237 238 240 256 259 255 257 256 258
309 302 295 293 276 264 258 252 245 244 243 240 239 239 237 234 229 230 229 227 224 222 222 224 225 227 227 228 230 232 235 235 232 231 236 238 239 235 246 250 262 255 258
303 306 304 295 285 273 265 258 247 242 242 240 238 236 236 236 234 229 227 226 225 223 222 224 225 227 227 228 230 232 234 236 237 236 238 240 243 246 254 251 256 266 255
300 301 298 298 293 279 269 265 257 248 243 241 239 236 235 235 234 232 229 225 224 221 219 222 226 227 228 228 229 232 234 238 239 240 242 241 246 251 253 259 261 265 253
295 297 298 296 290 285 278 266 266 251 247 245 242 237 234 235 232 232 230 228 224 221 224 218 223 225 229 229 229 230 234 238 241 244 244 246 246 252 257 262 263 260 270
291 294 297 297 294 288 279 270 263 259 248 242 242 238 234 234 232 230 230 229 226 224 221 215 219 222 225 227 229 231 233 237 239 241 244 247 250 254 257 260 263 267 276
291 293 295 295 294 288 281 272 263 257 253 245 241 238 236 235 233 228 228 229 226 223 224 220 220 221 224 225 228 229 230 232 237 239 243 248 252 255 258 262 265 267 266
294 294 294 292 290 285 281 275 266 257 251 247 241 239 236 236 236 229 226 225 227 222 217 220 220 221 223 224 227 230 231 234 237 241 244 247 252 255 260 263 268 271 265
298 295 292 289 285 283 279 276 269 258 251 245 241 237 235 235 235 231 226 218 222 225 221 218 220 220 222 223 225 228 232 234 236 238 239 244 249 253 259 263 267 270 264
295 292 290 287 285 281 276 271 267 258 249 244 240 237 234 232 232 229 228 222 215 220 222 219 219 221 223 223 225 227 229 231 233 238 241 244 248 253 259 262 265 267 267
294 292 290 288 285 279 272 266 262 256 245 239 236 235 232 230 228 229 225 225 216 215 218 219 220 221 223 225 228 228 228 231 234 238 242 246 248 250 254 259 264 266 267
291 289 288 285 282 277 271 263 256 250 245 238 233 232 230 229 228 225 226 224 221 216 214 219 223 223 225 227 230 230 231 233 236 239 244 245 250 253 257 261 263 266 268
291 288 285 284 281 274 268 257 251 246 242 238 234 229 228 227 226 226 222 223 224 222 222 219 218 220 222 227 229 231 233 236 238 242 246 249 249 254 256 259 265 263 256